Home   Weather   Tuba City   Past weeks

Flag for USA Past Weather in Tuba City, Arizona, USA — Yesterday and Last 2 Weeks

Now
66 °F

Passing clouds.


Feels Like: 66 °F
Forecast: 59 / 88 °F
Wind: 8 mph from Northwest

Location: Grand Canyon National Park Airport

Current Time: Aug 20, 2017 at 5:10:43 pm

Latest Report: Aug 20, 2017 at 4:19 pm


Visibility: 10 mi

Pressure: 30.24 "Hg (25.34 "Hg at 1510m altitude)

Humidity: 56%

Dew Point: 50 °F

Location of Tuba CityLocation

Past Weather in Tuba City — Graph

°F

Tuba City Temperature Yesterday

Maximum temperature yesterday: 85 °F (at 4:54 pm)
Minimum temperature yesterday: 42 °F (at 6:54 am)
Average temperature yesterday: 65 °F

High & Low Weather Summary for the Past Weeks

 TemperatureHumidityPressure
High85 °F (Aug 19, 4:54 pm)100% (Aug 6, 2:54 am)30.35 "Hg (Aug 6, 2:54 am)
Low37 °F (Aug 16, 5:54 am)14% (Aug 17, 4:54 pm)29.78 "Hg (Aug 15, 6:54 am)
Average65 °F53%29.99 "Hg
* Reported Aug 5 3:54 pm — Aug 20 3:54 pm, Tuba City. Weather by CustomWeather, © 2017

Note: Actual official high and low records may vary slightly from our data, if they occured in-between our weather recording intervals... More about our weather records

Advertising

Tuba City Weather History for the Previous 24 Hours

Scroll right to see more
 ConditionsComfort  
Time TempWeatherWind HumidityBarometerVisibility
3:54 pm
Sun, Aug 20
66 °FThundershowers. Passing clouds.8 mph56%30.03 "Hg10 mi
3:29 pm71 °FThundershowers. Passing clouds.10 mph36%30.23 "Hg10 mi
2:54 pm70 °FThunderstorms. Partly sunny.20 mph38%30.02 "Hg10 mi
1:54 pm80 °FThundershowers. Partly sunny.8 mph28%29.96 "Hg10 mi
12:54 pm80 °FPassing clouds.6 mph27%29.96 "Hg10 mi
11:54 am78 °FSunny.5 mph29%30.00 "Hg10 mi
10:54 am77 °FScattered clouds.N/A29%29.98 "Hg10 mi
9:54 am73 °FOvercast.5 mph33%29.97 "Hg10 mi
8:54 am61 °FPartly sunny.No wind56%30.00 "Hg10 mi
7:54 am55 °FScattered clouds.No wind59%29.98 "Hg10 mi
6:54 am50 °FPartly sunny.No wind68%29.97 "Hg10 mi
5:54 am47 °FClear.No wind71%29.96 "Hg10 mi
4:54 am47 °FClear.No wind71%29.95 "Hg10 mi
3:54 am48 °FClear.No wind68%29.97 "Hg10 mi
2:54 am50 °FPassing clouds.No wind66%29.96 "Hg10 mi
1:54 am51 °FClear.No wind66%29.95 "Hg10 mi
12:54 am53 °FClear.No wind61%29.96 "Hg10 mi
11:54 pm
Sat, Aug 19
54 °FClear.No wind62%29.96 "Hg10 mi
10:54 pm58 °FClear.3 mph54%29.95 "Hg10 mi
9:54 pm64 °FClear.5 mph50%29.93 "Hg10 mi
8:54 pm68 °FClear.3 mph39%29.93 "Hg10 mi
7:54 pm77 °FPassing clouds.6 mph26%29.93 "Hg10 mi
6:54 pm82 °FSunny.8 mph22%29.93 "Hg10 mi
5:54 pm82 °FSunny.8 mph20%29.93 "Hg10 mi
Weather by CustomWeather, © 2017

See weather overviewHow to use our weather pages